Regional Weather Roundup
Issued by NWS

Home | Current Version | Previous Version | Text Only | Print | Product List | Glossary On
Versions: 1 2 3 4 5 6 7 8 9 10 11 12 13 14 15 16 17 18 19 20 21 22 23 24 25 26 27 28 29 30 31 32 33 34 35 36 37 38 39 40 41 42 43 44 45 46 47 48 49 50
000
ASUS44 KLUB 060101
RWRTX
WEST TEXAS WEATHER ROUNDUP
NATIONAL WEATHER SERVICE LUBBOCK TX
700 PM CST THU MAR 05 2015

NOTE: "FAIR" INDICATES FEW OR NO CLOUDS BELOW 12,000 FEET WITH NO
SIGNIFICANT WEATHER AND/OR OBSTRUCTIONS TO VISIBILITY.

TXZ004-006>008-010-012-014-016-OKZ002-060200-
TEXAS PANHANDLE/OKLAHOMA PANHANDLE

CITY           SKY/WX    TMP DP  RH WIND       PRES   REMARKS
AMARILLO       CLEAR     36  20  52 SW7       30.36R WCI  30
BORGER         CLEAR     44  14  29 SW5       30.34R
CANADIAN       CLEAR     41  26  56 S9        30.36R
DALHART        CLEAR     36  21  54 S10       30.31R WCI  28
DUMAS          PTCLDY    37  15  40 SW6       30.32R WCI  32
GUYMON         PTCLDY    38  25  59 S7        30.31S WCI  33
$$

TXZ026-029-035-045-048-060200-
SOUTHERN PANHANDLE/SOUTH PLAINS/ROLLING PLAINS

CITY           SKY/WX    TMP DP  RH WIND       PRES   REMARKS
CHILDRESS      CLEAR     38  24  57 SW7       30.46R WCI  33
SEMINOLE       CLEAR     36  25  63 CALM      30.44S
LUBBOCK        CLEAR     37  25  61 S10       30.40S WCI  30
$$

TXZ052-054-060>062-072-078-127-140-154-169-060200-
PERMIAN BASIN/CONCHO VALLEY/BIG COUNTRY/EDWARDS PLATEAU

CITY           SKY/WX    TMP DP  RH WIND       PRES   REMARKS
ABILENE        CLEAR     37  19  48 CALM      30.52R
BIG SPRING     CLEAR    N/A N/A N/A S5        30.49S
BRADY          CLEAR     34  21  60 NE6       30.50S WCI  29
BROWNWOOD      CLEAR     36  21  55 E3        30.54R
JUNCTION       CLEAR     39  22  50 NE6       30.50S WCI  35
MIDLAND        CLEAR     40  21  46 SE6       30.45S
ODESSA         CLEAR     39  22  50 SW5       30.45S
SAN ANGELO     CLEAR     38  21  50 E5        30.51R WCI  34
SONORA         CLEAR     41  19  42 E5        30.53S
WINK           CLEAR     39  25  57 SW9       30.44S WCI  33
$$

TXZ055-058-074-075-080-082-060200-
FAR WEST/SOUTHWEST MOUNTAINS/TRANS PECOS

CITY           SKY/WX    TMP DP  RH WIND       PRES   REMARKS
DRYDEN           N/A     45  23  42 E5        30.45S
EL PASO        CLEAR     48  19  31 E6        30.34F
FORT STOCKTON  CLEAR     33  26  75 SW5       30.46F WCI  29
MARFA          CLEAR     36  27  69 NE10      30.38F WCI  28
PECOS          CLEAR     34  27  76 S6        30.49R WCI  29
$$

TXZ014-016-019-021>030-083-060200
TEXAS TECH WEST TEXAS MESONET/TEXAS PANHANDLE/NORTHERN SOUTH PLAINS

CITY           SKY/WX    TMP DP  RH WIND       PRES   REMARKS
ABERNATHY 5ENE   N/A     35  27  72 S9        30.41S WCI  28
AMARILLO 9NNE    N/A     40  20  45 S7        30.35R WCI  35
AMARILLO 7SSE    N/A     37  20  50 SW7       30.36R WCI  31
AMHERST 1NE      N/A     38  26  63 S7        30.38R WCI  32
BOOTLEG 11WNW    N/A     36  20  53 S10       30.34R WCI  28
CANADIAN 6E      N/A     40  24  51 S6        30.35S
CAPROCK CYN SP   N/A     37  26  66 S7        30.42R WCI  31
CLARENDON 2WSW   N/A     35  25  65 S9        30.40R WCI  28
CLAUDE 12SW      N/A     37  25  60 S9        30.37R WCI  31
DIMMITT 2NE      N/A     37  25  62 S10       30.35S WCI  29
FLOYDADA 2NNE    N/A     35  24  64 S8        30.40S WCI  28
FRIONA 2NE       N/A     38  24  57 S9        30.35S WCI  31
GOODLETT 3W      N/A     38  21  49 S7        30.46R WCI  33
HART 3N          N/A     36  27  69 S9        30.36S WCI  29
HEREFORD 2NW     N/A     39  23  53 S9        30.34S WCI  33
MCLEAN 1E        N/A     35  24  62 S10       30.38R WCI  28
MEMPHIS 1NE      N/A     40  23  52 S6        30.43R
MULESHOE 2SSW    N/A     40  22  49 S8        30.36S WCI  34
OLTON 6S         N/A     36  25  64 S9        30.38S WCI  29
PALO DURO SP     N/A     39  24  55 S12       30.38R WCI  32
PAMPA 2E         N/A     36  28  71 S10       30.36R WCI  29
PLAINVIEW 1S     N/A     37  27  67 S7        30.38S WCI  32
SILVERTON 7ESE   N/A     33  24  70 SW6       30.40R WCI  27
TULIA 2ENE       N/A     34  28  79 S6        30.38R WCI  29
TURKEY 2WSW      N/A     38  26  63 S8        30.42R WCI  32
UMBARGER 3NNE    N/A     37  23  58 SW8       30.35R WCI  30
$$

TXZ033>036-039>041-045>048-060200
TEXAS TECH WEST TEXAS MESONET/SOUTH PLAINS

CITY           SKY/WX    TMP DP  RH WIND       PRES   REMARKS
AIKEN 3WSW       N/A     35  26  70 S9        30.40S WCI  28
ANDREWS 2NE      N/A     39  24  53 S5        30.44S
ANTON 6SSW       N/A     37  27  66 S10       30.39S WCI  30
BROWNFIELD 2S    N/A     36  25  65 S8        30.42R WCI  30
DENVR CTY 7WNW   N/A     37  24  60 S10       30.40S WCI  30
GAIL 2ESE        N/A     38  24  57 SW6       30.46S WCI  33
LAMESA 2SE       N/A     35  25  66 S7        30.46R WCI  30
LEVELLAND 4S     N/A     37  24  60 S9        30.39S WCI  30
LUBBOCK 3WNW     N/A     38  24  57 S9        30.41F WCI  31
MORTON 1ENE      N/A     38  25  59 S10       30.37S WCI  31
ODONNELL 1N      N/A     37  25  64 S8        30.44S WCI  30
PLAINS 3N        N/A     38  24  57 S9        30.39S WCI  31
RALLS 1SE        N/A     35  25  65 SW7       30.43S WCI  29
REESE CENTER     N/A     37  25  63 S10       30.40S WCI  29
SEAGRAVES 1SW    N/A     37  26  63 S10       30.42S WCI  30
SEMINOLE 2NNE    N/A     37  24  58 S9        30.43S WCI  30
SLATON 2NE       N/A     36  24  62 S9        30.43R WCI  29
SNYDER 3E        N/A     36  21  55 SE6       30.47S WCI  31
SUNDOWN 8SW      N/A     37  22  54 S9        30.39S WCI  31
TAHOKA 3NNE      N/A     36  24  61 S7        30.43R WCI  30
WOLFFORTH 6SSW   N/A     37  28  68 S9        30.41S WCI  31
$$

TXZ031-032-036>038-042>044-060200-
TEXAS TECH WEST TEXAS MESONET/ROLLING PLAINS

CITY           SKY/WX    TMP DP  RH WIND       PRES   REMARKS
ASPERMONT 3NE    N/A     35  17  47 SE8       30.50S WCI  29
FLUVANNA 3WNW    N/A     36  24  60 S7        30.45S WCI  31
GRAHAM 5SSW      N/A     37  23  56 S7        30.44S WCI  32
GUTHRIE 10WSW    N/A     38  19  46 S7        30.46S WCI  33
HASKELL 1NW      N/A     35  23  61 S6        30.51S WCI  30
JAYTON 1SSE      N/A     37  19  48 S7        30.47S WCI  32
KNOX CITY 3NW    N/A     36  24  61 S10       30.51S WCI  29
LK A HENRY 1NW   N/A     39  21  48 S6        30.46S WCI  34
NORTHFIELD 1S    N/A     39  23  52 SW6       30.44S
ODELL 4ENE       N/A     34  24  66 S8        30.49S WCI  27
PADUCAH 10SW     N/A     37  22  54 S8        30.45S WCI  31
POST 1NE         N/A     39  23  53 SW7       30.45R WCI  34
RRING SPRGS 3N   N/A     37  25  63 SW6       30.43S WCI  32
SEYMOUR 3NW      N/A     35  25  65 S6        30.52S WCI  30
WEINERT 2NNE     N/A     34  24  66 S7        30.52R WCI  28
WHITE RVR 6NE    N/A     37  24  58 S8        30.43S WCI  31
$$

TXZ052-054-060>062-072-078-127-140-154-169-060200-
TEXAS TECH WEST TEXAS MESONET/PERMIAN BASIN/
CONCHO VALLEY/BIG COUNTRY/EDWARDS PLATEAU

CITY           SKY/WX    TMP DP  RH WIND       PRES   REMARKS
COYANOSA 2N      N/A     37  26  64 S5        30.49R WCI  33
JUNCTION 1SSW    N/A     38  22  50 NE5       30.51S WCI  35
MERTZON 3NNE     N/A     38  19  46 E3        30.51R
SAN ANGELO 7NW   N/A     38  20  48 E5        30.51S WCI  34
STRLNG CT 4WSW   N/A     39  18  42 S2        30.50R
ST LAWRNCE 5SW   N/A     39  22  50 W1        30.48R
SWEETWATR 11SW   N/A     35  20  55 NW5       30.49S WCI  31
WALL 1E          N/A     37  20  50 N2        30.52R
$$

TXZ055-058-074-075-080-082-060200-
TEXAS TECH WEST TEXAS MESONET/FAR WEST/SOUTHWEST MOUNTAINS/TRANS PECOS

CITY           SKY/WX    TMP DP  RH WIND       PRES   REMARKS
PRSMN GAP BBNP   N/A     41  25  53 N18       30.42R
$$



USA.gov is the U.S. government's official web portal to all federal, state and local government web resources and services.